Regional Weather Roundup
Issued by NWS Northern Indiana

Home | Current Version | Previous Version | Graphics & Text | Print | Product List | Glossary On
Versions: 1 2 3 4 5 6 7 8 9 10 11 12 13 14 15 16 17 18 19 20 21 22 23 24 25 26 27 28 29 30 31 32 33 34 35 36 37 38 39 40 41 42 43 44 45 46 47 48 49 50
000
ASUS43 KIWX 291800
RWRIWX

KIWX WEATHER ROUNDUP
NATIONAL WEATHER SERVICE NORTHERN INDIANA
200 PM EDT MON JUN 29 2015

NOTE: "FAIR" INDICATES FEW OR NO CLOUDS BELOW 12,000 FEET WITH NO
SIGNIFICANT WEATHER AND/OR OBSTRUCTIONS TO VISIBILITY.

* THESE STATIONS ARE NOT UNDER NWS QUALITY CONTROL. THEY ALSO MAY NOT
  REPORT WEATHER SUCH AS PRECIPITATION OR FOG.

INZ001>027-291900-
NORTHERN INDIANA

CITY           SKY/WX    TMP DP  RH WIND       PRES   REMARKS
GARY*          CLOUDY   N/A N/A N/A E8        29.82S
SOUTH BEND     CLOUDY    67  64  90 SE8       29.84F
6HR MIN TEMP:  66; 6HR MAX TEMP:  68; 6HR PCP:  0.33;

ELKHART*       LGT RAIN  64  64 100 E5        29.85S
GOSHEN         LGT RAIN  65  60  84 SE10      29.85S
6HR MIN TEMP:  65; 6HR MAX TEMP:  70; 6HR PCP:  0.01;

ANGOLA*        PTSUNNY   70  59  68 S13       29.86S
FORT WAYNE     CLOUDY    64  59  83 E10       29.85F
6HR MIN TEMP:  62; 6HR MAX TEMP:  65; 6HR PCP:  0.04;


$$
INZ028>050-291900-
CENTRAL INDIANA

CITY           SKY/WX    TMP DP  RH WIND       PRES   REMARKS
LAFAYETTE      CLOUDY    71  62  73 CALM      29.80S
6HR MIN TEMP:  65; 6HR MAX TEMP:  72;

KOKOMO*        PTSUNNY   70  63  78 E3        29.81S
6HR MIN TEMP:  63; 6HR MAX TEMP:  70;

MUNCIE*        CLOUDY    68  60  75 CALM      29.82S
6HR MIN TEMP:  62; 6HR MAX TEMP:  69; 6HR PCP: TRACE;

INDIANAPOLIS   CLOUDY    69  64  84 W3        29.81R
6HR MIN TEMP:  63; 6HR MAX TEMP:  70; 6HR PCP:  0.03;


$$
MIZ043>046-050>051-056>058-064>065-071>073-077>080-291900-
SOUTHWEST LOWER MICHIGAN

CITY           SKY/WX    TMP DP  RH WIND       PRES   REMARKS
BATTLE CREEK   CLOUDY    71  58  63 S13       29.86S
6HR MIN TEMP:  66; 6HR MAX TEMP:  73; 6HR PCP: TRACE;

BENTON HARBOR  CLOUDY    72  61  68 SE6       29.83S
6HR MIN TEMP:  66; 6HR MAX TEMP:  72;

COLDWATER*     CLOUDY    71  55  58 SE13      29.86S
6HR MIN TEMP:  62; 6HR MAX TEMP:  71;

HILLSDALE*     MOSUNNY   71  58  64 S8        29.88S
6HR MIN TEMP:  62; 6HR MAX TEMP:  71;

HOLLAND        CLOUDY    74  61  63 SE10      29.84S
6HR MIN TEMP:  63; 6HR MAX TEMP:  75;

GRAND RAPIDS   CLOUDY    73  58  59 S12       29.84F
6HR MIN TEMP:  62; 6HR MAX TEMP:  75;

KALAMAZOO      CLOUDY    71  57  61 SE7       29.85S
6HR MIN TEMP:  65; 6HR MAX TEMP:  72;

STURGIS*         N/A     66  61  82 SE10      29.85S
THREE RIVERS*  CLOUDY    68  58  70 SE6       29.86S
6HR MIN TEMP:  64; 6HR MAX TEMP:  72;


$$
OHZ001>008-015>018-024>025-291900-
NORTHWEST OHIO

CITY           SKY/WX    TMP DP  RH WIND       PRES   REMARKS
DEFIANCE       CLOUDY    64  57  78 SE12      29.88S
6HR MIN TEMP:  64; 6HR MAX TEMP:  68; 6HR PCP: TRACE;

FINDLAY        CLOUDY    65  60  84 E10       29.86F
6HR MIN TEMP:  62; 6HR MAX TEMP:  65; 6HR PCP:  0.16;

TOLEDO EXPRESS MOSUNNY   70  59  68 S12G20    29.89S
6HR MIN TEMP:  62; 6HR MAX TEMP:  70;

TOLEDO METCALF PTSUNNY   67  57  70 S17       29.90F
6HR MIN TEMP:  65; 6HR MAX TEMP:  68;

LIMA           LGT RAIN  61  58  90 E12       29.86S FOG
6HR MIN TEMP:  60; 6HR MAX TEMP:  63; 6HR PCP:  0.16;


$$
AND FOR LAKE MICHIGAN COASTAL AND OPEN LAKE BUOY OBSERVATIONS

STATION/POSITION TEMP    WIND        PRES    VSBY  WAVE
                 AIR SEA DIR/SP/G                  HT/PER
                 (F)     (DEG/KT/KT) (MB)    (MI)  (FT/S)
CALUMET HARBOR    65      50/  5/  6   N/A
MICHIGAN CITY     66     100/  6/  7   N/A
SAINT JOSEPH      71     200/  2/  5 1010.2F
4 MI NW BRIDGMAN  65 63                N/A           0
MICHIGAN CITY     65 64  130/  4/  4   N/A           0
MICHIGAN CITY CG  69 66  150/  9       N/A       6   3

$$
&&


USA.gov is the U.S. government's official web portal to all federal, state and local government web resources and services.